CZ-6A DEB, 61078

Orbit data source: Space-Track

CZ-6A DEB, 61078 is space debris in LEO originally from a launch on Tue, 06 Aug 2024 UTC launched from the Taiyaun Space Center, China (TSC). Debris objects in space refer to the collection of defunct objects orbiting the Earth. Examples of debris include non-operational satellites, rocket bodies, and fragments generated from explosions, collisions, or faulty payload assembly.

Loading next visibility...
Identifier
61078, 2024-140MU
Orbit
LEO
Country
Flag of CNCN / PRC
Related business
Manufacturer
SAST
Mission
Spacecraft
Bus & Motor
Unknown
Mass
Unknown
Launch date (UTC)
2024-08-06 (2 years ago)
Launch vehicle
Unknown
Launch site
Taiyaun Space Center, China (TSC)
Object type
Payload
Rocket body
Debris
Shape & HBR
Unknown shape, 0.1 m
Radar Cross Section
Medium (>0.1 m² and <1 m²)

Expand to show TLE details & history
Last TLE update: 14 hours ago

TLE from 14 hours ago
0 CZ-6A DEB
1 61078U 24140MU  26171.31061032  .00000874  00000-0  20190-3 0  9990
2 61078  89.0431 273.9459 0088834 271.8206  87.2829 14.52005119 96060
Epoch: 2026-06-20T07:27Z
TLE epoch observation values (Epoch: 2026-06-20T07:27:16.731Z)
Latitude
-0.00006°
Longitude
-106.40088°
Altitude
719.776 km
Speed
7.497 km/s
True Right ascension
18h 15m 47s
True Declination
0° 00' 00"
Sunlit
Object was in full shadow at epoch
Visualization orbit readout
Latitude
Unknown
Longitude
Unknown
Altitude
Unknown
Speed
Unknown
Apparent Right ascension
Unknown
Apparent Declination
Unknown
Sunlit
N/A
Visualization observer readout
Local Sidereal Time
08:43:04
Azimuth
Unknown
Elevation
Unknown
Doppler factor
Unknown
Orbital elements
Apogee altitude
779.032 km
Perigee altitude
652.992 km
Semi-major axis
7,094.149 km
Eccentricity
0.00888
Inclination
89.0431°
RAAN
273.9459°
Arg. of periapsis
271.8206°
True anomaly
88.3002°
Mean anomaly
87.2829°
Eccentric anomaly
87.7915°
Mean motion
3.63239 °/min
Orbital period
99.11 mins
BSTAR
0.0002019
Loading maneuver chart data...
Computing Atmospheric mass density...
Loading historical data...
Loading historical data...
Loading historical data...
Loading historical data...
Loading historical data...
Loading historical data...
Loading historical data...

Documentation

Showing up to 5 results
|